Weather History for KIRK - September, 2014

Change the Weather History Date:

Monday, September 29, 2014

  Actual Average Record
Temperature  
Mean Temperature 70 °F 59 °F  
Max Temperature 84 °F 70 °F 94 °F (1953)
Min Temperature 55 °F 48 °F 31 °F (1967)
Degree Days  
Heating Degree Days 0 7  
Month to date heating degree days 100 92  
Since 1 July heating degree days 106 99  
Cooling Degree Days 5 1  
Month to date cooling degree days 89 80  
Year to date cooling degree days 955 924  
Growing Degree Days 18 (Base 50)    
Moisture  
Dew Point 57 °F    
Average Humidity 70    
Maximum Humidity 100    
Minimum Humidity 40    
Precipitation  
Precipitation 0.00 in 0.10 in 1.95 in (1986)
Month to date precipitation 10.07 4.01  
Year to date precipitation 38.16 31.42  
Sea Level Pressure  
Sea Level Pressure 30.04 in    
Wind  
Wind Speed 2 mph (WNW)    
Max Wind Speed 9 mph    
Max Gust Speed 13 mph    
Visibility 7 miles    
Events      
T = Trace of Precipitation, MM = Missing Value Source: NWS Daily Summary

Daily Weather History Graph

Daily Weather History Graph

Search for Another Location

Airport or City:

Trip Planner

Search our weather history database for the weather conditions in past years. The results will help you decide how hot, cold, wet, or windy it might be!

Date:

Astronomy

Sep. 29, 2014 Rise Set
Actual Time 7:04 AM CDT 6:55 PM CDT
Civil Twilight 6:37 AM CDT 7:22 PM CDT
Nautical Twilight 6:06 AM CDT 7:54 PM CDT
Astronomical Twilight 5:34 AM CDT 8:25 PM CDT
Moon 12:17 PM CDT (9/29) 10:30 PM CDT (9/29)
Length of Visible Light 12h 45m
Length of Day
11h 51m
Waxing Crescent, 28% of the Moon is Illuminated
Sep 29
Waxing Crescent
Oct 1
First Quarter
Oct 8
Full
Oct 15
Last Quarter
Oct 23
New

Hourly Weather History & Observations

Time (CDT) Temp. Heat Index Dew Point Humidity Pressure Visibility Wind Dir Wind Speed Gust Speed Precip Events Conditions
12:55 AM 59.0 °F - 57.9 °F 96% 30.08 in 5.0 mi Calm Calm - N/A   Clear
1:55 AM 57.9 °F - 57.0 °F 97% 30.07 in 4.0 mi Calm Calm - N/A   Clear
2:55 AM 57.2 °F - 55.4 °F 94% 30.08 in 5.0 mi Calm Calm - N/A   Clear
3:39 AM 57.0 °F - 55.0 °F 93% 30.07 in 2.5 mi Calm Calm - N/A   Clear
3:48 AM 57.0 °F - 55.0 °F 93% 30.07 in 3.0 mi Calm Calm - N/A   Clear
3:55 AM 57.9 °F - 55.9 °F 93% 30.06 in 6.0 mi Calm Calm - N/A   Clear
4:55 AM 57.0 °F - 55.9 °F 96% 30.06 in 4.0 mi Calm Calm - N/A   Clear
5:55 AM 57.0 °F - 55.0 °F 93% 30.06 in 5.0 mi Calm Calm - N/A   Clear
6:55 AM 55.9 °F - 54.0 °F 93% 30.08 in 3.0 mi Calm Calm - N/A   Clear
7:08 AM 55.0 °F - 54.0 °F 96% 30.08 in 1.8 mi Calm Calm - N/A   Clear
7:17 AM 55.0 °F - 53.1 °F 93% 30.08 in 2.5 mi Calm Calm - N/A   Clear
7:41 AM 55.9 °F - 54.0 °F 93% 30.08 in 4.0 mi Calm Calm - N/A   Clear
7:55 AM 57.9 °F - 55.0 °F 90% 30.09 in 4.0 mi Calm Calm - N/A   Clear
8:55 AM 69.1 °F - 62.1 °F 78% 30.09 in 9.0 mi WNW 3.5 mph - N/A   Clear
9:55 AM 75.0 °F - 62.1 °F 64% 30.10 in 10.0 mi Variable 3.5 mph - N/A   Partly Cloudy
10:55 AM 80.1 °F 80.9 °F 60.1 °F 50% 30.09 in 9.0 mi NW 3.5 mph - N/A   Clear
11:55 AM 82.0 °F 81.7 °F 57.0 °F 42% 30.07 in 10.0 mi West 6.9 mph - N/A   Clear
12:55 PM 82.0 °F 82.0 °F 57.9 °F 44% 30.06 in 10.0 mi West 6.9 mph - N/A   Partly Cloudy
1:55 PM 82.0 °F 81.6 °F 55.9 °F 41% 30.04 in 10.0 mi Variable 3.5 mph - N/A   Clear
2:55 PM 82.9 °F 82.4 °F 57.0 °F 41% 30.01 in 10.0 mi North 3.5 mph - N/A   Mostly Cloudy
3:55 PM 82.9 °F 82.4 °F 57.0 °F 41% 30.00 in 10.0 mi WNW 6.9 mph - N/A   Partly Cloudy
4:55 PM 82.0 °F 81.7 °F 57.0 °F 42% 29.99 in 10.0 mi WNW 4.6 mph - N/A   Clear
5:55 PM 80.1 °F 80.6 °F 57.9 °F 47% 29.99 in 10.0 mi West 3.5 mph - N/A   Clear
6:55 PM 70.0 °F - 60.1 °F 71% 29.99 in 10.0 mi Calm Calm - N/A   Clear
7:55 PM 64.0 °F - 60.1 °F 87% 29.98 in 8.0 mi Calm Calm - N/A   Clear
8:55 PM 62.1 °F - 59.0 °F 90% 29.98 in 8.0 mi Calm Calm - N/A   Clear
9:55 PM 59.0 °F - 57.0 °F 93% 29.98 in 7.0 mi Calm Calm - N/A   Clear
10:55 PM 62.1 °F - 57.9 °F 86% 29.97 in 9.0 mi Calm Calm - N/A   Clear
11:55 PM 57.9 °F - 55.9 °F 93% 29.97 in 8.0 mi Calm Calm - N/A   Clear